Weather History for Woodward, OK

Change the Weather History Date:

Wednesday, October 16, 2013

  Actual Average (KGAG) Record (KGAG)
Temperature  
Mean Temperature 44 °F -  
Max Temperature 50 °F 71 °F 91 °F (1964)
Min Temperature 39 °F 42 °F 26 °F (2001)
Degree Days  
Heating Degree Days 20    
Moisture  
Dew Point 36 °F    
Average Humidity 75    
Maximum Humidity 87    
Minimum Humidity 54    
Precipitation  
Precipitation 0.03 in - - ()
Sea Level Pressure  
Sea Level Pressure 30.17 in    
Wind  
Wind Speed 7 mph (WNW)    
Max Wind Speed 9 mph    
Max Gust Speed -    
Visibility 10 miles    
Events Rain    
Averages and records for this station are not official NWS values.
T = Trace of Precipitation, MM = Missing Value Source: NWS Daily Summary

Daily Weather History Graph

Daily Weather History Graph

Search for Another Location

Airport:

Trip Planner

Search our weather history database for the weather conditions in past years. The results will help you decide how hot, cold, wet, or windy it might be!

Date:

Astronomy

Oct. 16, 2013 Rise Set
Actual Time 7:46 AM CDT 7:00 PM CDT
Civil Twilight 7:20 AM CDT 7:26 PM CDT
Nautical Twilight 6:50 AM CDT 7:56 PM CDT
Astronomical Twilight 6:20 AM CDT 8:25 PM CDT
Moon 5:38 PM CDT (10/16) 5:19 AM CDT (10/16)
Length of Visible Light 12h 05m
Length of Day
11h 13m
Waxing Gibbous, 94% of the Moon is Illuminated
Oct 16
Waxing Gibbous
Oct 18
Full
Oct 26
Last Quarter
Nov 3
New
Nov 9
First Quarter

Hourly Weather History & Observations

Time (CDT) Temp. Windchill Dew Point Humidity Pressure Visibility Wind Dir Wind Speed Gust Speed Precip Events Conditions
12:15 AM 46.4 °F 42.4 °F 35.6 °F 66% 30.22 in 10.0 mi North 8.1 mph - N/A   Clear
12:35 AM 46.4 °F 42.9 °F 35.6 °F 66% 30.22 in 10.0 mi North 6.9 mph - N/A   Clear
12:55 AM 44.6 °F 41.4 °F 35.6 °F 71% 30.23 in 10.0 mi North 5.8 mph - N/A   Clear
1:15 AM 44.6 °F 40.7 °F 35.6 °F 71% 30.21 in 10.0 mi North 6.9 mph - N/A   Clear
1:35 AM 44.6 °F 39.7 °F 35.6 °F 71% 30.23 in 10.0 mi North 9.2 mph - N/A   Scattered Clouds
1:55 AM 44.6 °F 39.7 °F 33.8 °F 66% 30.22 in 10.0 mi North 9.2 mph - N/A   Clear
2:15 AM 42.8 °F 38.0 °F 33.8 °F 70% 30.22 in 10.0 mi North 8.1 mph - N/A   Clear
2:35 AM 41.0 °F 35.2 °F 33.8 °F 76% 30.22 in 10.0 mi NNW 9.2 mph - N/A   Clear
2:55 AM 41.0 °F 35.2 °F 33.8 °F 76% 30.21 in 10.0 mi NNW 9.2 mph - N/A   Clear
3:15 AM 41.0 °F 35.8 °F 33.8 °F 76% 30.21 in 10.0 mi NNW 8.1 mph - N/A   Clear
3:35 AM 39.2 °F 34.2 °F 33.8 °F 81% 30.21 in 10.0 mi NNW 6.9 mph - N/A   Clear
3:55 AM 41.0 °F 36.4 °F 33.8 °F 76% 30.21 in 10.0 mi NW 6.9 mph - N/A   Clear
4:15 AM 41.0 °F 35.8 °F 32.0 °F 70% 30.21 in 10.0 mi NNW 8.1 mph - N/A   Clear
4:35 AM 41.0 °F 35.8 °F 33.8 °F 76% 30.22 in 10.0 mi NW 8.1 mph - N/A   Mostly Cloudy
4:55 AM 39.2 °F 35.9 °F 33.8 °F 81% 30.21 in 10.0 mi WNW 4.6 mph - N/A   Mostly Cloudy
5:15 AM 41.0 °F 39.0 °F 33.8 °F 76% 30.21 in 10.0 mi WNW 3.5 mph - N/A   Overcast
5:35 AM 41.0 °F 39.0 °F 33.8 °F 76% 30.21 in 10.0 mi NW 3.5 mph - N/A   Overcast
5:55 AM 41.0 °F 38.0 °F 33.8 °F 76% 30.21 in 10.0 mi NW 4.6 mph - N/A   Mostly Cloudy
6:15 AM 41.0 °F 37.1 °F 33.8 °F 76% 30.22 in 10.0 mi NW 5.8 mph - N/A   Overcast
6:35 AM 41.0 °F 39.0 °F 33.8 °F 76% 30.20 in 10.0 mi NNW 3.5 mph - N/A Rain Light Rain
6:55 AM 42.8 °F - 33.8 °F 70% 30.21 in 10.0 mi Calm Calm - N/A   Overcast
7:15 AM 41.0 °F - 35.6 °F 81% 30.23 in 10.0 mi Calm Calm - N/A   Overcast
7:35 AM 42.8 °F 39.3 °F 35.6 °F 76% 30.21 in 10.0 mi North 5.8 mph - N/A   Drizzle
7:55 AM 42.8 °F 40.1 °F 35.6 °F 76% 30.21 in 10.0 mi NNW 4.6 mph - N/A Rain Rain
8:15 AM 42.8 °F 41.1 °F 35.6 °F 76% 30.21 in 10.0 mi North 3.5 mph - N/A   Overcast
8:35 AM 42.8 °F 41.1 °F 33.8 °F 70% 30.21 in 10.0 mi NNW 3.5 mph - N/A   Overcast
8:55 AM 42.8 °F 38.6 °F 33.8 °F 70% 30.22 in 10.0 mi North 6.9 mph - N/A   Overcast
9:15 AM 42.8 °F 38.6 °F 33.8 °F 70% 30.21 in 10.0 mi North 6.9 mph - N/A   Overcast
9:35 AM 42.8 °F 37.5 °F 33.8 °F 70% 30.21 in 10.0 mi North 9.2 mph - N/A   Overcast
9:55 AM 44.6 °F 41.4 °F 33.8 °F 66% 30.21 in 10.0 mi North 5.8 mph - N/A   Overcast
10:15 AM 44.6 °F 40.7 °F 33.8 °F 66% 30.21 in 10.0 mi NNW 6.9 mph - N/A   Overcast
10:35 AM 46.4 °F 42.9 °F 33.8 °F 62% 30.21 in 10.0 mi North 6.9 mph - N/A   Overcast
10:55 AM 46.4 °F 43.5 °F 33.8 °F 62% 30.21 in 10.0 mi North 5.8 mph - N/A   Overcast
11:15 AM 46.4 °F 43.5 °F 32.0 °F 57% 30.23 in 10.0 mi NNW 5.8 mph - N/A   Overcast
11:35 AM 46.4 °F 42.9 °F 32.0 °F 57% 30.21 in 10.0 mi NNW 6.9 mph - N/A   Overcast
11:55 AM 46.4 °F 44.3 °F 32.0 °F 57% 30.22 in 10.0 mi NW 4.6 mph - N/A   Overcast
12:15 PM 48.2 °F - 32.0 °F 54% 30.21 in 10.0 mi NW 8.1 mph - N/A   Overcast
12:35 PM 46.4 °F 42.4 °F 33.8 °F 62% 30.21 in 10.0 mi WNW 8.1 mph - N/A   Light Drizzle
12:55 PM 46.4 °F 42.9 °F 35.6 °F 66% 30.21 in 10.0 mi NW 6.9 mph - N/A Rain Rain
1:15 PM 44.6 °F 42.2 °F 37.4 °F 76% 30.20 in 10.0 mi WNW 4.6 mph - N/A Rain Rain
1:35 PM 44.6 °F 41.4 °F 39.2 °F 81% 30.19 in 10.0 mi WNW 5.8 mph - 0.03 in Rain Light Rain
1:55 PM 44.6 °F 41.4 °F 39.2 °F 81% 30.19 in 10.0 mi West 5.8 mph - 0.03 in Rain Light Rain
2:15 PM 44.6 °F 40.7 °F 41.0 °F 87% 30.18 in 10.0 mi West 6.9 mph - N/A   Drizzle
2:35 PM 44.6 °F 41.4 °F 39.2 °F 81% 30.16 in 10.0 mi West 5.8 mph - N/A Rain Rain
2:55 PM 46.4 °F 42.4 °F 41.0 °F 81% 30.16 in 10.0 mi WSW 8.1 mph - N/A   Light Drizzle
3:15 PM 46.4 °F 42.4 °F 41.0 °F 81% 30.16 in 10.0 mi WSW 8.1 mph - N/A   Drizzle
3:35 PM 46.4 °F 42.4 °F 41.0 °F 81% 30.16 in 10.0 mi WSW 8.1 mph - N/A   Drizzle
3:55 PM 46.4 °F 41.9 °F 41.0 °F 81% 30.15 in 10.0 mi West 9.2 mph - N/A   Overcast
4:15 PM 46.4 °F 41.9 °F 41.0 °F 81% 30.14 in 10.0 mi West 9.2 mph - N/A   Overcast
4:35 PM 46.4 °F 43.5 °F 41.0 °F 81% 30.12 in 10.0 mi West 5.8 mph - N/A   Light Drizzle
4:55 PM 48.2 °F - 41.0 °F 76% 30.12 in 10.0 mi West 6.9 mph - N/A   Scattered Clouds
5:15 PM 50.0 °F - 41.0 °F 71% 30.12 in 10.0 mi WNW 6.9 mph - N/A   Clear
5:35 PM 50.0 °F - 39.2 °F 66% 30.12 in 10.0 mi WNW 5.8 mph - N/A   Scattered Clouds
5:55 PM 50.0 °F - 39.2 °F 66% 30.11 in 10.0 mi West 5.8 mph - N/A   Scattered Clouds
6:15 PM 50.0 °F - 39.2 °F 66% 30.11 in 10.0 mi West 4.6 mph - N/A   Clear
6:35 PM 50.0 °F - 39.2 °F 66% 30.11 in 10.0 mi West 4.6 mph - N/A   Clear
6:55 PM 46.4 °F 43.5 °F 39.2 °F 76% 30.11 in 10.0 mi West 5.8 mph - N/A   Clear
7:15 PM 44.6 °F 43.1 °F 41.0 °F 87% 30.10 in 10.0 mi SSW 3.5 mph - N/A   Clear
7:35 PM 42.8 °F 40.1 °F 39.2 °F 87% 30.10 in 10.0 mi SSW 4.6 mph - N/A   Clear
7:55 PM 42.8 °F 38.6 °F 39.2 °F 87% 30.10 in 10.0 mi SSW 6.9 mph - N/A   Clear
8:35 PM 42.8 °F 38.6 °F 39.2 °F 87% 30.11 in 10.0 mi South 6.9 mph - N/A   Clear
8:55 PM 42.8 °F 38.6 °F 39.2 °F 87% 30.11 in 10.0 mi SSW 6.9 mph - N/A   Clear
9:15 PM 42.8 °F 40.1 °F 39.2 °F 87% 30.11 in 10.0 mi South 4.6 mph - N/A   Scattered Clouds
9:35 PM 42.8 °F 39.3 °F 39.2 °F 87% 30.11 in 10.0 mi South 5.8 mph - N/A   Mostly Cloudy
9:55 PM 42.8 °F 40.1 °F 37.4 °F 81% 30.10 in 10.0 mi South 4.6 mph - N/A   Scattered Clouds
10:15 PM 41.0 °F 37.1 °F 37.4 °F 87% 30.10 in 10.0 mi South 5.8 mph - N/A   Scattered Clouds
10:35 PM 42.8 °F 39.3 °F 39.2 °F 87% 30.10 in 10.0 mi South 5.8 mph - N/A   Mostly Cloudy
10:55 PM 42.8 °F 38.6 °F 39.2 °F 87% 30.10 in 10.0 mi South 6.9 mph - N/A   Overcast
11:15 PM 42.8 °F 40.1 °F 37.4 °F 81% 30.09 in 10.0 mi South 4.6 mph - N/A   Scattered Clouds
11:35 PM 41.0 °F 36.4 °F 37.4 °F 87% 30.09 in 10.0 mi South 6.9 mph - N/A   Clear
11:55 PM 41.0 °F 36.4 °F 37.4 °F 87% 30.09 in 10.0 mi South 6.9 mph - N/A   Clear